[[{"header":{"parameterUnit":"m.s-1","parameterCategory":1,"la1":30.2991,"la2":30.254,"lo1":-89.0895,"lo2":-89.0444,"dy":0.0017,"dx":0.0017,"nx":28,"ny":28,"refTime":"2024-07-26T03:00:00:Z","depth":0,"parameterNumber":2,"parameterNumberName":"U-component_of_WINDS"},"data":[0,0,0,0,0,0,0,0,0,0,0,0,0,0,0,0,0,0,0,0,0,0,0,0,0,0,0,0,0,0,0,0,0,0,0,0,0,0,0,0,0,0,0,0,0,0,0,0,0,0,0,0,0,0,0,0,0,0,-0.6307,-0.6307,0,-0.6276,-0.6276,-0.6276,-0.622,-0.6219,-0.6218,-0.6217,-0.6187,-0.6187,-0.6187,0,0,0,0,0,0,0,0,0,0,0,0,0,-0.6321,-0.6321,-0.6308,-0.6307,-0.6307,-0.6276,-0.6276,-0.6276,-0.622,-0.6219,-0.6218,-0.6216,-0.6187,-0.6187,-0.6187,0,0,0,0,0,0,0,0,0,0,0,0,0,-0.6305,-0.6321,-0.6308,-0.6275,-0.6272,-0.6277,-0.6276,-0.6276,-0.622,-0.6219,-0.6217,-0.6216,-0.6187,-0.6187,-0.6187,-0.6221,0,0,-0.6188,-0.6189,0,0,0,0,0,0,0,0,-0.6306,-0.6304,-0.628,-0.6278,-0.6274,-0.625,-0.627,-0.6257,-0.6221,-0.624,-0.6217,-0.6215,-0.621,-0.6208,-0.6206,-0.622,-0.6219,-0.6188,-0.6189,-0.6189,-0.6189,0,0,0,0,0,0,0,-0.6307,-0.6306,-0.6295,-0.628,-0.6276,-0.6263,-0.6259,-0.6267,-0.6234,-0.6238,-0.6234,-0.6231,-0.6207,-0.6205,-0.6205,-0.6218,-0.6188,-0.6189,-0.6189,-0.6189,-0.6259,-0.6261,0,0,0,0,0,0,-0.6313,-0.6307,-0.6296,-0.6294,-0.6286,-0.6264,-0.626,-0.626,-0.6234,-0.6229,-0.6233,-0.6229,-0.6206,-0.6204,-0.6203,-0.6241,-0.6189,-0.6189,-0.6189,-0.6257,-0.6259,-0.6261,0,0,0,0,0,0,-0.6313,-0.6312,-0.6297,-0.6299,-0.6296,-0.6266,-0.6266,-0.626,-0.6258,-0.623,-0.6224,-0.6236,-0.6204,-0.6203,-0.6217,-0.6239,-0.6189,-0.6189,-0.6255,-0.6258,-0.626,-0.6317,0,0,0,0,0,0,-0.6314,-0.6313,-0.6325,-0.63,-0.6297,-0.6312,-0.6267,-0.626,-0.6258,-0.6253,-0.6232,-0.6227,-0.6203,-0.6217,-0.6217,-0.6239,-0.619,-0.6253,-0.6257,-0.6259,-0.6313,-0.6322,-0.6328,0,0,0,0,0,-0.6314,-0.6343,-0.6326,-0.6325,-0.6311,-0.6313,-0.6311,-0.6283,-0.626,-0.6272,-0.6254,-0.6227,-0.6237,-0.6219,-0.6219,-0.6241,-0.6252,-0.6256,-0.6259,-0.631,-0.632,-0.6328,0,0,0,0,0,0,-0.6371,-0.6339,-0.632,-0.6341,-0.633,-0.6303,-0.6318,-0.6294,-0.629,-0.6285,-0.6251,-0.6247,-0.6265,-0.6255,-0.6235,-0.6272,-0.624,-0.6244,-0.6279,-0.6288,-0.6295,-0.6297,-0.619,0,0,0,0,0,-0.6386,-0.639,-0.6361,-0.6383,-0.6378,-0.6349,-0.6349,-0.6328,-0.6316,-0.6311,-0.6294,-0.6284,-0.6284,-0.6286,-0.6285,-0.6312,-0.6306,-0.6327,-0.6334,-0.6341,-0.6344,-0.6358,-0.6366,-0.6274,-0.6274,-0.6273,0,0,-0.6418,-0.64,-0.6405,-0.6394,-0.6383,-0.6388,-0.6346,-0.6353,-0.6356,-0.6312,-0.6324,-0.6312,-0.6298,-0.6319,-0.6327,-0.631,-0.6369,-0.6345,-0.6351,-0.6351,-0.6363,-0.6371,-0.6379,-0.6276,-0.6276,-0.6275,0,0,-0.6477,-0.6464,-0.648,-0.647,-0.6454,-0.6434,-0.6438,-0.6415,-0.6405,-0.6417,-0.6384,-0.6388,-0.6389,-0.6381,-0.6377,-0.6433,-0.6408,-0.6434,-0.6473,-0.6487,-0.6494,-0.65,-0.652,-0.6528,-0.6438,-0.6438,-0.6438,0,-0.6517,-0.6523,-0.6491,-0.65,-0.6497,-0.6457,-0.6473,-0.6465,-0.645,-0.6449,-0.643,-0.6431,-0.6419,-0.6437,-0.6451,-0.6449,-0.6453,-0.6436,-0.6495,-0.6501,-0.6507,-0.6525,-0.6533,-0.6441,-0.6441,-0.644,-0.644,0,-0.6574,-0.6578,-0.6593,-0.6579,-0.6577,-0.659,-0.6561,-0.6563,-0.6542,-0.6525,-0.6538,-0.6522,-0.6517,-0.6519,-0.65,-0.6535,-0.6525,-0.6501,-0.6468,-0.6519,-0.6536,-0.6543,-0.6446,-0.6444,-0.6443,-0.6443,0,0,-0.6668,-0.6636,-0.6642,-0.6635,-0.6614,-0.6617,-0.6628,-0.6623,-0.6625,-0.6616,-0.6625,-0.6627,-0.6605,-0.6601,-0.658,-0.6592,-0.6637,-0.6566,-0.6565,-0.658,-0.6675,-0.6692,-0.6701,-0.662,-0.6621,-0.6622,-0.6676,0,-0.6722,-0.6739,-0.6711,-0.6734,-0.6738,-0.67,-0.671,-0.6698,-0.6683,-0.6684,-0.6667,-0.6669,-0.664,-0.6637,-0.6647,-0.6629,-0.6655,-0.6625,-0.6628,-0.6629,-0.6633,-0.671,-0.6729,-0.678,-0.6682,-0.6683,-0.6684,0,-0.6788,-0.6782,-0.6805,-0.6783,-0.6783,-0.6793,-0.6785,-0.6787,-0.6774,-0.6761,-0.6756,-0.6731,-0.6741,-0.6709,-0.6723,-0.6703,-0.6702,-0.6694,-0.6695,-0.6694,-0.6659,-0.6711,-0.6795,-0.6803,-0.6694,-0.6693,-0.6693,0,-0.6854,-0.6851,-0.6865,-0.686,-0.6834,-0.6842,-0.6832,-0.6817,-0.6815,-0.6809,-0.6808,-0.6803,-0.6801,-0.6798,-0.6773,-0.6752,-0.6789,-0.6755,-0.678,-0.678,-0.6789,-0.6789,-0.6874,-0.6789,-0.6789,-0.6789,-0.6789,0,-0.6918,-0.6934,-0.6894,-0.6902,-0.6919,-0.6887,-0.6905,-0.6891,-0.6878,-0.6883,-0.6851,-0.6857,-0.6823,-0.6825,-0.6805,-0.6819,-0.6819,-0.6809,-0.6804,-0.6812,-0.6813,-0.6811,-0.6807,-0.6791,-0.6791,-0.679,-0.679,0,-0.6994,-0.6968,-0.698,-0.6955,-0.6949,-0.6963,-0.6941,-0.6948,-0.693,-0.6938,-0.6938,-0.691,-0.6911,-0.6885,-0.6882,-0.6868,-0.6891,-0.6879,-0.6895,-0.6892,-0.6917,-0.6915,-0.7004,-0.7014,-0.6923,-0.6924,-0.6925,0,-0.7036,-0.7047,-0.7023,-0.7024,-0.7015,-0.7017,-0.7015,-0.6985,-0.6984,-0.697,-0.6979,-0.6977,-0.6974,-0.6977,-0.6957,-0.6954,-0.6942,-0.6974,-0.6942,-0.6949,-0.6942,-0.6942,-0.6943,-0.698,-0.6982,-0.6983,-0.6983,0,-0.7114,-0.71,-0.7098,-0.7092,-0.7091,-0.7084,-0.7076,-0.7079,-0.7045,-0.7047,-0.7047,-0.7044,-0.704,-0.7039,-0.7032,-0.7022,-0.6998,-0.6994,-0.6999,-0.7007,-0.7016,-0.7011,-0.6913,-0.6992,-0.6991,-0.699,-0.699,-0.6989,-0.7174,-0.7182,-0.7166,-0.7165,-0.7156,-0.7149,-0.7154,-0.7136,-0.7136,-0.7129,-0.7112,-0.7115,-0.7102,-0.709,-0.7082,-0.7085,-0.7069,-0.7077,-0.7079,-0.7081,-0.7086,-0.7016,-0.7083,-0.7083,-0.7083,-0.7083,-0.7082,0,-0.725,-0.7237,-0.7237,-0.7226,-0.7225,-0.7201,-0.7191,-0.7192,-0.7195,-0.7184,-0.7182,-0.7183,-0.7181,-0.7161,-0.7157,-0.7163,-0.7152,-0.7163,-0.7163,-0.7161,-0.71,-0.7096,-0.7173,-0.7173,-0.7173,-0.7173,-0.7173,-0.7173,-0.7289,-0.7301,-0.7286,-0.7293,-0.7281,-0.7284,-0.728,-0.7273,-0.7264,-0.7266,-0.7265,-0.7251,-0.7237,-0.7232,-0.723,-0.7224,-0.7224,-0.7239,-0.723,-0.7174,-0.7165,-0.7157,-0.7152,-0.724,-0.724,-0.729,-0.729,-0.7291]},{"header":{"parameterUnit":"m.s-1","parameterCategory":1,"la1":30.2991,"la2":30.254,"lo1":-89.0895,"lo2":-89.0444,"dy":0.0017,"dx":0.0017,"nx":28,"ny":28,"refTime":"2024-07-26T03:00:00:Z","depth":0,"parameterNumber":3,"parameterNumberName":"V-component_of_WINDS"},"data":[0,0,0,0,0,0,0,0,0,0,0,0,0,0,0,0,0,0,0,0,0,0,0,0,0,0,0,0,0,0,0,0,0,0,0,0,0,0,0,0,0,0,0,0,0,0,0,0,0,0,0,0,0,0,0,0,0,0,0.2731,0.273,0,0.2628,0.2627,0.2625,0.25,0.2498,0.2496,0.2494,0.239,0.2389,0.2388,0,0,0,0,0,0,0,0,0,0,0,0,0,0.2819,0.2818,0.2731,0.273,0.2728,0.2628,0.2626,0.2625,0.25,0.2498,0.2495,0.2493,0.239,0.2389,0.2388,0,0,0,0,0,0,0,0,0,0,0,0,0,0.2755,0.2818,0.2731,0.2654,0.2646,0.2628,0.2626,0.2625,0.2501,0.2498,0.2495,0.2492,0.239,0.2389,0.2387,0.2438,0,0,0.2383,0.2383,0,0,0,0,0,0,0,0,0.2759,0.2752,0.2667,0.2659,0.265,0.2574,0.2619,0.2562,0.2501,0.2556,0.2494,0.2491,0.2453,0.2446,0.2434,0.2433,0.2428,0.2383,0.2382,0.2382,0.2381,0,0,0,0,0,0,0,0.2764,0.2756,0.269,0.2665,0.2655,0.2624,0.2612,0.2608,0.2522,0.2551,0.2542,0.2531,0.2448,0.2435,0.243,0.2427,0.2383,0.2382,0.2381,0.238,0.2461,0.2463,0,0,0,0,0,0,0.278,0.276,0.2693,0.2687,0.2698,0.2625,0.2611,0.2601,0.2522,0.2507,0.2534,0.2526,0.2439,0.2432,0.2426,0.2479,0.2382,0.238,0.2379,0.2458,0.2461,0.2464,0,0,0,0,0,0,0.2782,0.2775,0.2697,0.2721,0.2709,0.2627,0.2616,0.2601,0.2588,0.2509,0.2493,0.2536,0.2437,0.2428,0.2435,0.2474,0.238,0.2378,0.2454,0.2459,0.2463,0.2587,0,0,0,0,0,0,0.2785,0.2776,0.2795,0.2722,0.2708,0.2709,0.2619,0.2601,0.2585,0.2574,0.2507,0.2493,0.2434,0.2438,0.2434,0.247,0.2377,0.245,0.2456,0.2461,0.2579,0.2595,0.2608,0,0,0,0,0,0.2789,0.2834,0.2797,0.2789,0.2729,0.2712,0.2703,0.2633,0.2589,0.2607,0.2556,0.2495,0.247,0.244,0.2434,0.2471,0.2448,0.2455,0.2461,0.2572,0.2592,0.2608,0,0,0,0,0,0,0.2914,0.2823,0.2781,0.2804,0.2766,0.269,0.2711,0.2656,0.2631,0.2621,0.2536,0.2522,0.2539,0.2505,0.2473,0.2514,0.245,0.2456,0.2536,0.2554,0.2569,0.2577,0.2376,0,0,0,0,0,0.2944,0.2937,0.2858,0.2887,0.287,0.2794,0.2783,0.2733,0.269,0.2674,0.2624,0.2585,0.2568,0.2559,0.2539,0.2573,0.2556,0.2595,0.261,0.2622,0.2629,0.2643,0.2659,0.2487,0.2487,0.2486,0,0,0.3007,0.2957,0.2958,0.2911,0.2875,0.287,0.2781,0.278,0.2775,0.2674,0.2677,0.2639,0.259,0.2611,0.2617,0.2583,0.2672,0.2631,0.2641,0.2641,0.2652,0.2668,0.2683,0.2491,0.249,0.249,0,0,0.3119,0.308,0.3099,0.3065,0.3013,0.2961,0.2966,0.2898,0.2869,0.2871,0.2795,0.2787,0.276,0.2729,0.2709,0.2807,0.275,0.2803,0.2881,0.2896,0.291,0.2922,0.2957,0.297,0.2809,0.281,0.281,0,0.3204,0.3192,0.3116,0.3118,0.31,0.3007,0.3025,0.2996,0.2941,0.293,0.2892,0.2855,0.2816,0.2828,0.2852,0.2839,0.2841,0.2811,0.2914,0.2925,0.2935,0.2967,0.2981,0.2816,0.2816,0.2815,0.2814,0,0.3299,0.3292,0.3314,0.3262,0.3245,0.3256,0.3181,0.3173,0.3124,0.3077,0.308,0.3029,0.2997,0.2996,0.2948,0.3,0.2981,0.293,0.2863,0.2959,0.2988,0.3,0.2826,0.2824,0.2822,0.282,0,0,0.3488,0.3392,0.3402,0.3376,0.3311,0.3304,0.3311,0.3279,0.3274,0.3238,0.3241,0.322,0.3172,0.315,0.3097,0.311,0.3191,0.3057,0.3054,0.3084,0.3246,0.3285,0.3301,0.3152,0.3155,0.3156,0.325,0,0.3588,0.3593,0.3524,0.3548,0.354,0.3452,0.3457,0.3418,0.3373,0.3361,0.3311,0.3298,0.3235,0.3221,0.323,0.318,0.3223,0.3171,0.3155,0.3155,0.3171,0.3316,0.3358,0.3449,0.3261,0.3263,0.3264,0,0.3706,0.3676,0.37,0.3632,0.3626,0.3633,0.3597,0.3586,0.3539,0.3506,0.3481,0.342,0.3421,0.3357,0.3358,0.3325,0.3313,0.3287,0.3289,0.3285,0.3216,0.3317,0.3476,0.3491,0.3281,0.328,0.3279,0,0.3842,0.3807,0.3817,0.3798,0.372,0.3726,0.3694,0.3644,0.3629,0.3598,0.3587,0.3557,0.3541,0.3519,0.3451,0.3411,0.346,0.339,0.3432,0.3434,0.3447,0.3448,0.3608,0.3439,0.3439,0.3439,0.3439,0,0.3961,0.3979,0.3877,0.3883,0.39,0.3819,0.3839,0.3798,0.3754,0.375,0.3671,0.3669,0.358,0.3568,0.3515,0.3523,0.3516,0.349,0.3476,0.3497,0.3501,0.3489,0.3482,0.3442,0.3442,0.3441,0.344,0,0.4117,0.4049,0.4053,0.3978,0.396,0.3976,0.3911,0.3914,0.3864,0.386,0.3855,0.3777,0.3759,0.3689,0.3654,0.3618,0.3644,0.3616,0.366,0.3651,0.3697,0.3694,0.3856,0.3873,0.3694,0.3696,0.3697,0,0.4198,0.4209,0.4135,0.4127,0.4098,0.4086,0.4069,0.399,0.3977,0.3924,0.3933,0.3908,0.3884,0.3859,0.38,0.3772,0.3743,0.3802,0.3739,0.376,0.3745,0.3745,0.3746,0.3816,0.3818,0.382,0.3822,0,0.4349,0.4314,0.4294,0.4262,0.4245,0.4216,0.4183,0.4181,0.4092,0.4081,0.4061,0.4043,0.4006,0.3983,0.3946,0.3912,0.3853,0.3842,0.385,0.3873,0.3898,0.3885,0.3698,0.3839,0.3837,0.3836,0.3835,0.3834,0.4469,0.4475,0.4424,0.4404,0.437,0.4341,0.4339,0.4289,0.4271,0.4235,0.4189,0.4175,0.4126,0.407,0.4041,0.4028,0.3996,0.4008,0.4011,0.4015,0.4026,0.39,0.4021,0.4021,0.402,0.402,0.4019,0,0.4617,0.4579,0.4561,0.4517,0.4501,0.4445,0.4405,0.4396,0.4384,0.4344,0.4322,0.4299,0.4275,0.4213,0.4184,0.4186,0.4158,0.4181,0.418,0.4174,0.4057,0.4053,0.4204,0.4204,0.4204,0.4204,0.4204,0.4204,0.4691,0.4698,0.4658,0.4647,0.4609,0.4594,0.4576,0.4548,0.4516,0.4493,0.4473,0.4433,0.4384,0.435,0.4326,0.4308,0.4301,0.4333,0.4307,0.4199,0.4182,0.4165,0.4161,0.4332,0.4332,0.4424,0.4425,0.4426]}]]